La Vergne, TN

9:15 AM CST on February 21, 2017 (GMT -0600)
Smyrna

Weather History for KMQY - October, 2013

Change the Weather History Date:

Monday, October 28, 2013

  Actual Average Record
Temperature  
Mean Temperature 56 °F -  
Max Temperature 64 °F 66 °F 82 °F (2016)
Min Temperature 47 °F 49 °F 30 °F (2005)
Degree Days  
Heating Degree Days 10    
Growing Degree Days 6 (Base 50)    
Moisture  
Dew Point 54 °F    
Average Humidity 91    
Maximum Humidity 100    
Minimum Humidity 75    
Precipitation  
Precipitation 0.00 in - - ()
Sea Level Pressure  
Sea Level Pressure 30.22 in    
Wind  
Wind Speed 1 mph (South)    
Max Wind Speed 6 mph    
Max Gust Speed -    
Visibility 7 miles    
Events Fog , Rain    
Averages and records for this station are not official NWS values.
T = Trace of Precipitation, MM = Missing Value Source: NWS Daily Summary

Daily Weather History Graph

Daily Weather History Graph

Search for Another Location

Airport or City:

Trip Planner

Search our weather history database for the weather conditions in past years. The results will help you decide how hot, cold, wet, or windy it might be!

Date:

Astronomy

Oct. 28, 2013 Rise Set
Actual Time 7:04 AM CDT 5:54 PM CDT
Civil Twilight 6:38 AM CDT 6:20 PM CDT
Nautical Twilight 6:08 AM CDT 6:50 PM CDT
Astronomical Twilight 5:38 AM CDT 7:20 PM CDT
Moon 1:08 AM CDT (10/28) 2:25 PM CDT (10/28)
Length of Visible Light 11h 41m
Length of Day
10h 49m
Waning Crescent, 34% of the Moon is Illuminated
Oct 28
Waning Crescent
Nov 3
New
Nov 9
First Quarter
Nov 17
Full
Nov 25
Last Quarter

Hourly Weather History & Observations

Time (CDT) Temp. Dew Point Humidity Pressure Visibility Wind Dir Wind Speed Gust Speed Precip Events Conditions
12:56 AM 57.9 °F 54.0 °F 87% 30.14 in 10.0 mi Calm Calm - N/A   Mostly Cloudy
1:21 AM 59.0 °F 53.6 °F 82% 30.11 in 10.0 mi Calm Calm - N/A   Overcast
1:30 AM 59.0 °F 53.6 °F 82% 30.11 in 10.0 mi Calm Calm - N/A   Mostly Cloudy
1:56 AM 59.0 °F 54.0 °F 83% 30.14 in 10.0 mi Calm Calm - N/A   Mostly Cloudy
2:56 AM 56.8 °F 54.0 °F 90% 30.15 in 10.0 mi Calm Calm - N/A   Mostly Cloudy
3:56 AM 56.8 °F 54.9 °F 93% 30.15 in 5.0 mi Calm Calm - 0.00 in Rain Light Rain
4:56 AM 55.9 °F 55.9 °F 100% 30.16 in 10.0 mi Calm Calm - 0.00 in   Overcast
5:56 AM 56.8 °F 54.0 °F 90% 30.17 in 10.0 mi Calm Calm - 0.00 in   Mostly Cloudy
6:14 AM 57.2 °F 53.6 °F 88% 30.15 in 10.0 mi South 3.5 mph - N/A   Overcast
6:26 AM 57.2 °F 53.6 °F 88% 30.15 in 10.0 mi Calm Calm - N/A   Mostly Cloudy
6:56 AM 55.9 °F 54.9 °F 96% 30.18 in 10.0 mi Calm Calm - N/A   Overcast
7:56 AM 56.8 °F 54.9 °F 93% 30.21 in 10.0 mi SSW 5.8 mph - N/A   Mostly Cloudy
8:56 AM 56.8 °F 54.9 °F 93% 30.24 in 3.0 mi SSW 4.6 mph - N/A   Overcast
9:56 AM 57.9 °F 55.9 °F 93% 30.25 in 3.0 mi SSW 5.8 mph - 0.00 in   Light Drizzle
10:33 AM 59.0 °F 57.2 °F 94% 30.23 in 10.0 mi SSW 4.6 mph - 0.00 in   Overcast
10:56 AM 59.0 °F 56.8 °F 93% 30.26 in 10.0 mi SSW 4.6 mph - 0.00 in   Overcast
11:56 AM 61.0 °F 56.8 °F 86% 30.25 in 10.0 mi SW 5.8 mph - N/A   Overcast
12:38 PM 62.6 °F 57.2 °F 82% 30.21 in 10.0 mi SSW 5.8 mph - N/A   Overcast
12:56 PM 61.9 °F 56.8 °F 84% 30.24 in 10.0 mi Variable 4.6 mph - N/A   Overcast
1:56 PM 63.9 °F 55.9 °F 75% 30.21 in 10.0 mi Calm Calm - N/A   Mostly Cloudy
2:56 PM 63.9 °F 56.8 °F 78% 30.22 in 10.0 mi Calm Calm - N/A   Overcast
3:56 PM 64.9 °F 57.9 °F 78% 30.23 in 10.0 mi NNE 5.8 mph - N/A   Mostly Cloudy
4:32 PM 64.4 °F 57.2 °F 77% 30.22 in 10.0 mi NNE 4.6 mph - N/A   Overcast
4:49 PM 64.4 °F 57.2 °F 77% 30.22 in 10.0 mi NE 3.5 mph - N/A   Mostly Cloudy
4:56 PM 63.9 °F 57.9 °F 81% 30.25 in 10.0 mi NE 3.5 mph - N/A   Mostly Cloudy
5:56 PM 61.0 °F 56.8 °F 86% 30.26 in 10.0 mi Calm Calm - N/A   Scattered Clouds
6:56 PM 56.8 °F 56.8 °F 100% 30.27 in 7.0 mi Calm Calm - N/A   Mostly Cloudy
7:56 PM 54.0 °F 54.0 °F 100% 30.28 in 7.0 mi Calm Calm - N/A   Scattered Clouds
7:58 PM 53.6 °F 53.6 °F 100% 30.25 in 0.8 mi Calm Calm - N/A   Mostly Cloudy
8:05 PM 53.6 °F 53.6 °F 100% 30.25 in 7.0 mi Calm Calm - N/A   Partly Cloudy
8:56 PM 50.9 °F 50.9 °F 100% 30.29 in 7.0 mi Calm Calm - N/A   Scattered Clouds
9:56 PM 47.8 °F 47.8 °F 100% 30.31 in 4.0 mi Calm Calm - N/A   Clear
10:00 PM 48.2 °F 48.2 °F 100% 30.28 in 0.2 mi Calm Calm - N/A Fog Fog
10:34 PM 51.8 °F 51.8 °F 100% 30.28 in 0.5 mi South 3.5 mph - N/A Fog Fog
10:46 PM 51.8 °F 51.8 °F 100% 30.28 in 0.2 mi Calm Calm - N/A Fog Fog
10:56 PM 50.9 °F 50.9 °F 100% 30.31 in 0.2 mi Calm Calm - N/A Fog Fog
11:56 PM 50.0 °F 50.0 °F 100% 30.30 in 0.2 mi Calm Calm - N/A Fog Fog